• en France
  • Liste des pays
  • À 7 jours
  • Température de l'eau
  • Carte satellitaire
  • Carte météo
  • Widgets météo
  • user-avatar
    Se connecter

    Météo par heure à Akbulatyurt

    Ce jour, 22 Août, Mercredi

    Heure Température Précipitation Vent Pression Humidité
    00:00 +22°C° 0 mm 3 m/s 759 mmHg 74%
    01:00 +22°C° 0 mm 3 m/s 759 mmHg 75%
    02:00 +22°C° 0 mm 3 m/s 758 mmHg 75%
    03:00 +21°C° 0 mm 2 m/s 759 mmHg 80%
    04:00 +21°C° 0 mm 2 m/s 759 mmHg 79%
    05:00 +22°C° 0 mm 1 m/s 759 mmHg 77%
    06:00 +22°C° 0 mm 1 m/s 759 mmHg 75%
    07:00 +24°C° 0 mm 1 m/s 759 mmHg 67%
    08:00 +27°C° 0 mm 2 m/s 758 mmHg 58%
    09:00 +29°C° 0 mm 2 m/s 758 mmHg 50%
    10:00 +30°C° 0 mm 2 m/s 758 mmHg 45%
    11:00 +32°C° 0 mm 2 m/s 758 mmHg 40%
    12:00 +34°C° 0 mm 2 m/s 758 mmHg 36%
    13:00 +35°C° 0 mm 3 m/s 758 mmHg 34%
    14:00 +35°C° 0 mm 3 m/s 757 mmHg 32%
    15:00 +36°C° 0 mm 3 m/s 757 mmHg 30%
    16:00 +35°C° 0 mm 3 m/s 757 mmHg 32%
    17:00 +34°C° 0 mm 3 m/s 757 mmHg 34%
    18:00 +33°C° 0 mm 3 m/s 758 mmHg 36%
    19:00 +30°C° 0 mm 2 m/s 758 mmHg 40%
    20:00 +28°C° 0 mm 2 m/s 758 mmHg 45%
    21:00 +27°C° 0 mm 2 m/s 759 mmHg 49%
    22:00 +26°C° 0 mm 2 m/s 759 mmHg 50%
    23:00 +26°C° 0 mm 2 m/s 759 mmHg 52%

    Demain, 23 Août, Jeudi

    Heure Température Précipitation Vent Pression Humidité
    00:00 +25°C° 0 mm 2 m/s 759 mmHg 53%
    01:00 +25°C° 0 mm 2 m/s 759 mmHg 54%
    02:00 +25°C° 0 mm 2 m/s 759 mmHg 54%
    03:00 +24°C° 0 mm 2 m/s 759 mmHg 55%
    04:00 +24°C° 0 mm 2 m/s 759 mmHg 54%
    05:00 +24°C° 0 mm 2 m/s 759 mmHg 54%
    06:00 +25°C° 0 mm 2 m/s 759 mmHg 53%
    07:00 +27°C° 0 mm 2 m/s 759 mmHg 47%
    08:00 +30°C° 0 mm 2 m/s 760 mmHg 40%
    09:00 +32°C° 0 mm 2 m/s 760 mmHg 34%
    10:00 +34°C° 0 mm 2 m/s 760 mmHg 31%
    11:00 +35°C° 0 mm 3 m/s 760 mmHg 28%
    12:00 +36°C° 0 mm 3 m/s 760 mmHg 25%
    13:00 +37°C° 0 mm 3 m/s 760 mmHg 25%
    14:00 +37°C° 0 mm 3 m/s 759 mmHg 24%
    15:00 +37°C° 0 mm 3 m/s 759 mmHg 24%
    16:00 +36°C° 0 mm 4 m/s 760 mmHg 28%
    17:00 +34°C° 0 mm 5 m/s 760 mmHg 33%
    18:00 +33°C° 0 mm 5 m/s 760 mmHg 37%
    19:00 +30°C° 0 mm 5 m/s 760 mmHg 45%
    20:00 +28°C° 0 mm 4 m/s 761 mmHg 52%
    21:00 +26°C° 0 mm 4 m/s 761 mmHg 60%
    22:00 +25°C° 0 mm 4 m/s 761 mmHg 64%
    23:00 +25°C° 0 mm 4 m/s 761 mmHg 68%

    Après-demain, 24 Août, Vendredi

    Heure Température Précipitation Vent Pression Humidité
    00:00 +25°C° 0 mm 4 m/s 761 mmHg 72%
    01:00 +23°C° 0 mm 4 m/s 761 mmHg 73%
    02:00 +23°C° 0 mm 4 m/s 761 mmHg 73%
    03:00 +23°C° 0 mm 4 m/s 761 mmHg 74%
    04:00 +23°C° 0 mm 4 m/s 761 mmHg 72%
    05:00 +23°C° 0 mm 4 m/s 761 mmHg 70%
    06:00 +23°C° 0 mm 5 m/s 761 mmHg 68%
    07:00 +26°C° 0 mm 5 m/s 761 mmHg 59%
    08:00 +28°C° 0 mm 6 m/s 761 mmHg 51%
    09:00 +30°C° 0 mm 7 m/s 761 mmHg 43%
    10:00 +32°C° 0 mm 7 m/s 761 mmHg 40%
    11:00 +33°C° 0 mm 8 m/s 761 mmHg 38%
    12:00 +33°C° 0 mm 8 m/s 760 mmHg 36%
    13:00 +33°C° 0 mm 8 m/s 760 mmHg 37%
    14:00 +33°C° 0 mm 8 m/s 760 mmHg 38%
    15:00 +33°C° 0 mm 8 m/s 760 mmHg 39%
    16:00 +31°C° 0 mm 8 m/s 760 mmHg 42%
    17:00 +29°C° 0 mm 7 m/s 760 mmHg 46%
    18:00 +28°C° 0 mm 7 m/s 760 mmHg 49%
    19:00 +27°C° 0 mm 6 m/s 760 mmHg 53%
    20:00 +24°C° 0 mm 6 m/s 760 mmHg 56%
    21:00 +23°C° 0 mm 5 m/s 760 mmHg 60%
    22:00 +23°C° 0 mm 5 m/s 760 mmHg 61%
    23:00 +23°C° 0 mm 4 m/s 760 mmHg 61%

    25 Août, Samedi

    Heure Température Précipitation Vent Pression Humidité
    00:00 +23°C° 0 mm 4 m/s 760 mmHg 62%
    01:00 +22°C° 0 mm 4 m/s 759 mmHg 63%
    02:00 +22°C° 0 mm 4 m/s 759 mmHg 63%
    03:00 +22°C° 0 mm 4 m/s 759 mmHg 64%
    04:00 +22°C° 0 mm 3 m/s 759 mmHg 64%
    05:00 +22°C° 0 mm 3 m/s 759 mmHg 64%
    06:00 +22°C° 0 mm 3 m/s 759 mmHg 63%
    07:00 +25°C° 0 mm 4 m/s 759 mmHg 55%
    08:00 +28°C° 0 mm 4 m/s 758 mmHg 46%
    09:00 +30°C° 0 mm 5 m/s 758 mmHg 37%
    10:00 +32°C° 0 mm 6 m/s 758 mmHg 34%
    11:00 +34°C° 0 mm 6 m/s 758 mmHg 32%
    12:00 +35°C° 0 mm 6 m/s 757 mmHg 29%
    13:00 +35°C° 0 mm 7 m/s 757 mmHg 30%
    14:00 +35°C° 0 mm 7 m/s 757 mmHg 30%
    15:00 +34°C° 0 mm 7 m/s 757 mmHg 31%
    16:00 +33°C° 0 mm 7 m/s 757 mmHg 34%
    17:00 +32°C° 0 mm 6 m/s 757 mmHg 38%
    18:00 +29°C° 0 mm 6 m/s 757 mmHg 41%
    19:00 +28°C° 0 mm 6 m/s 757 mmHg 47%
    20:00 +26°C° 0 mm 5 m/s 757 mmHg 52%
    21:00 +25°C° 0 mm 4 m/s 758 mmHg 58%
    22:00 +25°C° 0 mm 4 m/s 757 mmHg 60%
    23:00 +23°C° 0 mm 4 m/s 757 mmHg 62%

    26 Août, Dimanche

    Heure Température Précipitation Vent Pression Humidité
    00:00 +24°C° 0 mm 3 m/s 757 mmHg 63%
    01:00 +22°C° 0 mm 3 m/s 757 mmHg 65%
    02:00 +22°C° 0 mm 3 m/s 757 mmHg 66%
    03:00 +22°C° 0 mm 3 m/s 757 mmHg 68%
    04:00 +22°C° 0 mm 3 m/s 757 mmHg 68%
    05:00 +23°C° 0 mm 2 m/s 757 mmHg 68%
    06:00 +23°C° 0 mm 2 m/s 757 mmHg 68%
    07:00 +26°C° 0 mm 3 m/s 757 mmHg 57%
    08:00 +28°C° 0 mm 3 m/s 757 mmHg 45%
    09:00 +32°C° 0 mm 4 m/s 757 mmHg 34%
    10:00 +33°C° 0 mm 5 m/s 756 mmHg 31%
    11:00 +35°C° 0 mm 5 m/s 756 mmHg 27%
    12:00 +36°C° 0 mm 6 m/s 756 mmHg 23%
    13:00 +36°C° 0 mm 6 m/s 755 mmHg 24%
    14:00 +36°C° 0 mm 7 m/s 755 mmHg 24%
    15:00 +35°C° 0 mm 7 m/s 755 mmHg 25%
    16:00 +34°C° 0 mm 7 m/s 755 mmHg 29%
    17:00 +32°C° 0 mm 7 m/s 755 mmHg 32%
    18:00 +30°C° 0 mm 6 m/s 755 mmHg 36%
    19:00 +28°C° 0 mm 6 m/s 756 mmHg 43%
    20:00 +27°C° 0 mm 5 m/s 756 mmHg 50%
    21:00 +25°C° 0 mm 5 m/s 756 mmHg 57%
    22:00 +25°C° 0,1 mm 4 m/s 756 mmHg 60%
    23:00 +25°C° 0,1 mm 4 m/s 756 mmHg 63%

    27 Août, Lundi

    Heure Température Précipitation Vent Pression Humidité
    00:00 +23°C° 0,1 mm 4 m/s 756 mmHg 65%
    01:00 +24°C° 0,1 mm 3 m/s 756 mmHg 68%
    02:00 +24°C° 0,1 mm 3 m/s 756 mmHg 70%
    03:00 +22°C° 0,1 mm 3 m/s 756 mmHg 72%
    04:00 +24°C° 0 mm 3 m/s 756 mmHg 72%
    05:00 +24°C° 0 mm 2 m/s 756 mmHg 72%
    06:00 +24°C° 0 mm 2 m/s 756 mmHg 72%
    07:00 +26°C° 0 mm 3 m/s 756 mmHg 62%
    08:00 +29°C° 0 mm 3 m/s 756 mmHg 51%
    09:00 +32°C° 0 mm 4 m/s 756 mmHg 40%
    10:00 +33°C° 0 mm 4 m/s 756 mmHg 37%
    11:00 +34°C° 0 mm 4 m/s 756 mmHg 33%
    12:00 +36°C° 0 mm 5 m/s 756 mmHg 30%
    13:00 +35°C° 0 mm 5 m/s 756 mmHg 30%
    14:00 +35°C° 0 mm 6 m/s 756 mmHg 31%
    15:00 +35°C° 0 mm 6 m/s 756 mmHg 31%
    16:00 +33°C° 0 mm 6 m/s 756 mmHg 35%
    17:00 +32°C° 0 mm 6 m/s 756 mmHg 40%
    18:00 +29°C° 0 mm 5 m/s 756 mmHg 44%
    19:00 +28°C° 0 mm 5 m/s 757 mmHg 51%
    20:00 +26°C° 0 mm 4 m/s 757 mmHg 57%
    21:00 +24°C° 0 mm 3 m/s 758 mmHg 63%
    22:00 +24°C° 0 mm 3 m/s 758 mmHg 66%
    23:00 +23°C° 0 mm 2 m/s 758 mmHg 68%
    Voir plus